Flag for Madagascar Weather past 2 weeks in Antsirabe, Madagascar

Now
48 °F

Passing clouds.


Feels Like: 48 °F
Forecast: 39 / 68 °F
Wind: No wind

Location: Antananarivo / Ivato

Current Time: May 29, 2015 at 5:32:39 AM

Latest Report: May 29, 2015 at 5:00 AM


Visibility: N/A

Pressure: 30.21 "Hg

Humidity: 100%

Dew point: 48 °F

Location of AntsirabeLocation

Historic Weather in Antsirabe — Graph

°F

Antsirabe temperature yesterday

Maximum temperature yesterday: 73 °F (at 2:30 PM)
Minimum temperature yesterday: 50 °F (at 5:30 AM)
Average temperature yesterday: 60 °F

Past Weeks' High & Low Weather Summary

 TemperatureHumidityPressure
High79 °F (May 14, 1:30 PM)100% (May 14, 4:00 AM)30.33 "Hg (May 14, 4:00 AM)
Low48 °F (May 29, 4:30 AM)37% (May 14, 2:00 PM)30.09 "Hg (May 14, 4:00 AM)
Average64 °F88%30.24 "Hg
* Reported May 14 4:00 AM — May 29 4:30 AM, Antsirabe, Weather by CustomWeather, © 2015

Note: Actual official high and low records may vary slightly from our data, if they occured in-between our weather recording intervals... More about our weather records

Advertising

Antsirabe weather history for previous 24 hours

 ConditionsComfort  
Time TempWeatherWind HumidityBarometerVisibility
4:30 AM
Fri, May 29
48 °FPassing clouds.No wind100%30.21 "HgN/A
4:00 AM50 °FPassing clouds.No wind100%30.21 "HgN/A
3:00 AM50 °FPassing clouds.No wind100%30.21 "HgN/A
2:00 AM50 °FPassing clouds.No wind100%30.21 "HgN/A
1:00 AM52 °FPassing clouds.3 mph100%30.27 "HgN/A
12:00 AM52 °FPassing clouds.No wind100%30.27 "HgN/A
11:30 PM
Thu, May 28
52 °FPassing clouds.No wind100%30.27 "HgN/A
11:00 PM52 °FPassing clouds.1 mph100%30.27 "HgN/A
10:30 PM52 °FPassing clouds.6 mph100%30.27 "HgN/A
10:00 PM54 °FPassing clouds.8 mph100%30.27 "HgN/A
9:30 PM54 °FPassing clouds.7 mph100%30.24 "HgN/A
9:00 PM55 °FPassing clouds.8 mph100%30.24 "HgN/A
8:30 PM55 °FPassing clouds.7 mph100%30.24 "HgN/A
8:00 PM55 °FPassing clouds.6 mph100%30.24 "HgN/A
7:00 PM57 °FPassing clouds.3 mph94%30.24 "HgN/A
6:30 PM59 °FPassing clouds.5 mph88%30.21 "HgN/A
6:00 PM61 °FPassing clouds.6 mph83%30.21 "HgN/A
5:00 PM66 °FPassing clouds.8 mph73%30.21 "HgN/A
4:30 PM70 °FPassing clouds.6 mph64%30.21 "HgN/A
4:00 PM70 °FPassing clouds.7 mph64%30.18 "HgN/A
3:30 PM72 °FPassing clouds.6 mph57%30.18 "HgN/A
3:00 PM72 °FPassing clouds.6 mph57%30.18 "HgN/A
2:30 PM73 °FPassing clouds.5 mph57%30.18 "HgN/A
2:00 PM72 °FPassing clouds.6 mph61%30.18 "HgN/A
1:30 PM72 °FPassing clouds.8 mph61%30.18 "HgN/A
1:00 PM70 °FPassing clouds.8 mph69%30.21 "HgN/A
12:30 PM70 °FPassing clouds.5 mph64%30.24 "HgN/A
12:00 PM68 °FPassing clouds.7 mph69%30.24 "HgN/A
11:30 AM68 °FPassing clouds.6 mph69%30.24 "HgN/A
11:00 AM68 °FPassing clouds.6 mph69%30.27 "HgN/A
10:30 AM66 °FPassing clouds.7 mph73%30.27 "HgN/A
10:00 AM63 °FPassing clouds.7 mph77%30.30 "HgN/A
9:30 AM61 °FPassing clouds.10 mph83%30.30 "HgN/A
9:00 AM61 °FPassing clouds.8 mph88%30.30 "HgN/A
8:30 AM59 °FPassing clouds.5 mph94%30.30 "HgN/A
8:00 AM57 °FPassing clouds.7 mph100%30.30 "HgN/A
7:30 AM57 °FPassing clouds.7 mph100%30.27 "HgN/A
7:00 AM55 °FPassing clouds.No wind100%30.27 "HgN/A
6:30 AM52 °FPassing clouds.No wind100%30.27 "HgN/A
6:00 AM50 °FPassing clouds.No wind100%30.27 "HgN/A
5:30 AM50 °FPassing clouds.No wind100%30.24 "HgN/A
5:00 AM52 °FPassing clouds.No wind100%30.24 "HgN/A
Weather by CustomWeather, © 2015

See weather overviewHow to use our weather pages